Regional Weather Roundup
Issued by NWS

Home | Current Version | Previous Version | Graphics & Text | Print | Product List | Glossary On
Versions: 1 2 3 4 5 6 7 8 9 10 11 12 13 14 15 16 17 18 19 20 21 22 23 24 25 26 27 28 29 30 31 32 33 34 35 36 37 38 39 40 41 42 43 44 45 46 47 48 49 50
000
ASUS45 KPSR 232010
RWRAZ

ARIZONA REGIONAL HOURLY WEATHER ROUNDUP
NATIONAL WEATHER SERVICE PHOENIX AZ
100 PM MST WED JUL 23 2014

NOTE: FAIR INDICATES FEW OR NO CLOUDS BELOW 12,000 FEET WITH NO
SIGNIFICANT WEATHER AND/OR OBSTRUCTIONS TO VISIBILITY.

AZZ001>003-036-232100-
NORTHWEST ARIZONA

CITY           SKY/WX    TMP DP  RH WIND       PRES   REMARKS
BULLHEAD CITY  SUNNY    109  32   7 SW9       29.85F HX 102
KINGMAN        MOSUNNY  102  36  10 SW18G26   30.09F
$$

AZZ004>008-015-016-018-232100-
NORTH CENTRAL ARIZONA

CITY           SKY/WX    TMP DP  RH WIND       PRES   REMARKS
GRAND CANYON   PTSUNNY   88  37  16 N7        30.37F
WILLIAMS       PTSUNNY   82  39  21 CALM      30.44F
PRESCOTT       PTSUNNY   95  37  13 N8        30.23F
FLAGSTAFF      MOSUNNY   83  41  22 VRB3      30.40F
PAYSON         MOSUNNY   91  50  24 VRB6      30.26F
PAGE           SUNNY     99  43  14 CALM      30.14F
$$

AZZ009>014-017-232100-
NORTHEAST ARIZONA

CITY           SKY/WX    TMP DP  RH WIND       PRES   REMARKS
WINSLOW        SUNNY     96  46  18 VRB6      30.21F
SAINT JOHNS    PTSUNNY   91  47  21 E14       30.27F
WINDOW ROCK    MOSUNNY   87  43  21 VRB3      30.39F
SHOW LOW       LGT RAIN  73  55  53 SE14      30.40F
$$

AZZ023-232100-
GREATER PHOENIX AREA

CITY           SKY/WX    TMP DP  RH WIND       PRES   REMARKS
PHOENIX        PTSUNNY  109  56  17 VRB6      29.87F HX 108
BUCKEYE          N/A    106  50  15 SE3       29.88F HX 103
GLENDALE       MOSUNNY  106  59  21 E12G18    29.91S HX 106
LUKE AFB       NOT AVBL
DEER VALLEY    MOSUNNY  108  53  16 S10G17    29.90F HX 106
SCOTTSDALE     MOSUNNY  106  56  19 VRB6      29.92F HX 105
MESA-GATEWAY   PTSUNNY  108  52  15 S9G17     29.92F HX 105
CHANDLER       PTSUNNY  108  57  19 VRB6      29.89F HX 107
$$

AZZ027-028-232100-
SOUTHWEST MARICOPA COUNTY AND PINAL COUNTY

CITY           SKY/WX    TMP DP  RH WIND       PRES   REMARKS
CASA GRANDE    SUNNY    106  55  18 CALM      29.93F HX 105
GILA BEND      MOCLDY   113  43   9 VRB5      29.87F HX 107
$$

AZZ503-504-507>509-232100-
SOUTHEAST ARIZONA

CITY           SKY/WX    TMP DP  RH WIND       PRES   REMARKS
TUCSON         SUNNY    103  51  17 SE17G24   30.03F HX 100
DAVIS-MONTHAN  MOSUNNY  101  54  20 E16G24    30.01F
RYAN FIELD       N/A    102  52  18 E10G20    30.01F HX 100
NOGALES        MOSUNNY   96  54  24 SE9       30.13F
SIERRA VISTA   PTSUNNY   91  54  27 E8G21     30.22F
DOUGLAS        MOSUNNY   93  58  30 E17G26    30.18F
SAFFORD        MOSUNNY   97  55  24 S12       30.10F
$$

AZZ020-021-025-026-031-232100-
SOUTHWEST ARIZONA

CITY           SKY/WX    TMP DP  RH WIND       PRES   REMARKS
YUMA           MOSUNNY  114  32   6 W8        29.81F HX 106
$$

CAZ031-033-041-043-047-048-061-232100-
SOUTHERN CALIFORNIA

CITY           SKY/WX    TMP DP  RH WIND       PRES   REMARKS
DOWNTOWN L.A.  SUNNY     86  60  41 VRB3      29.95F
L.A. AIRPORT   MOSUNNY   78  57  48 W15       29.98F
SAN DIEGO      MOSUNNY   80  59  48 NW9       29.98F
BURBANK        SUNNY     93  53  25 S6        29.96F
ONTARIO        MOSUNNY   94  51  23 W9        29.97F
RIVERSIDE      SUNNY     93  50  23 VRB7      29.96F
PALM SPRINGS   SUNNY    114  15   3 N7        29.84F HX 104
EL CENTRO NAS  MOSUNNY  112  36   7 NE8       29.79F HX 105
IMPERIAL       SUNNY    110  32   7 NE5       29.79F HX 102
BLYTHE         SUNNY    110  37   8 SW7       29.83F HX 103
NEEDLES        SUNNY    113  31   6 NE6       29.86F HX 105
$$

NVZ020-UTZ003-232100-
SOUTHERN NEVADA-UTAH

CITY           SKY/WX    TMP DP  RH WIND       PRES   REMARKS
LAS VEGAS      MOSUNNY  108  19   4 S16       29.91F
SALT LAKE CITY MOSUNNY  101  34   9 S15G26    30.06F
$$

NMZ009-TXZ055-232100-
NEW MEXICO-WEST TEXAS

CITY           SKY/WX    TMP DP  RH WIND       PRES   REMARKS
ALBUQUERQUE    PTSUNNY   84  54  35 S6        30.34F
EL PASO        MOSUNNY   93  49  22 E14G25    30.21F
$$


........................KEY........................
SKY/WX - SKY CONDITION/WEATHER
TMP    - TEMPERATURE IN FAHRENHEIT
DP     - DEW POINT IN FAHRENHEIT
RH     - RELATIVE HUMIDITY IN PERCENT
WIND   - DIRECTION AND SPEED IN MILES PER HOUR (MPH)
VRB    - VARIABLE WIND DIRECTION
PRES   - MEAN SEA LEVEL PRESSURE IN INCHES OF MERCURY
         F - FALLING PRESSURE   R - RISING PRESSURE
         S - STEADY PRESSURE
VSB    - VISIBILITY IN MILES
HX     - HEAT INDEX IN FAHRENHEIT
WCI    - WIND CHILL INDEX IN FAHRENHEIT
TC     - TEMPERATURE IN CELSIUS WHICH IS ALSO KNOWN AS
         TEMPERATURE IN CENTIGRADE
AFB    - AIR FORCE BASE
         LUKE AFB IS LUKE AIR FORCE BASE
         DAVIS-MONTHAN IS DAVIS-MONTHAN AIR FORCE BASE
NAS    - NAVAL AIR STATION
         EL CENTRO NAS IS EL CENTRO NAVAL AIR STATION
N/A    - NOT AVAILABLE



USA.gov is the U.S. government's official web portal to all federal, state and local government web resources and services.